User: anonymous   Login
Location: Unspecified
(0.0000°N, 0.0000°E)
Time: 09:02:29
(UTC+00:00)
Language:

OBJECT Y - Orbit

View from above orbital plane
View from above orbital plane
View from above satellite
View from above satellite

Ground track
Ground track

The orbit data is extracted from the following two-line orbital elements,

1 43133U 18004Y   23265.88775780  .00056548  00000-0  10035-2 0  9994
2 43133  97.3192 344.4458 0005910 141.9459 218.2211 15.50025007317303
Epoch (UTC): 22 September 2023 21:18:22
Eccentricity: 0.0005910
inclination: 97.3192°
perigee height: 412 km
apogee height: 420 km
right ascension of ascending node: 344.4458°
argument of perigee: 141.9459°
revolutions per day: 15.50025007
mean anomaly at epoch: 218.2211°
orbit number at epoch: 31730

The dashed part of the orbit path shows where the satellite is in the earth's shadow,  

DLR